www.pogodaiklimat.ru
Время
и дата
09:41 30.12
09:51 30.12
10:02 30.12
10:16 30.12
10:40 30.12
10:51 30.12
11:51 30.12
12:42 30.12
12:51 30.12
13:51 30.12
14:51 30.12
15:51 30.12
16:51 30.12
17:51 30.12
18:33 30.12
18:51 30.12
19:51 30.12
20:51 30.12
21:06 30.12
21:51 30.12
22:16 30.12
22:51 30.12
23:51 30.12
00:28 31.12
00:51 31.12
01:51 31.12
02:36 31.12
02:51 31.12
03:51 31.12
04:51 31.12
05:41 31.12
05:51 31.12
05:58 31.12
06:29 31.12
06:51 31.12
07:07 31.12
07:26 31.12
07:51 31.12
08:51 31.12
09:51 31.12
10:51 31.12
11:51 31.12
12:51 31.12
13:51 31.12
14:30 31.12
14:51 31.12
15:51 31.12
16:51 31.12
Ветер
(напр.,м/с)
Видим. Явления Облачность Т
(С)
Тd
(С)
f
(%)
Тe
(С)
Тes
(С)
Комфортность P
(гПа)
Po
(гПа)
Тmin
(С)
Tmax
(С)
R
(мм)
R24
(мм)
S
(см)
штиль 0 2 км дымка 10/10 60 м +20.0 +20.0 100 +23 +23 комфорт 1011.9
штиль 0 3 км дымка 10/10 90 м +20.0 +20.0 100 +23 +23 комфорт 1013.3 1011.9
штиль 0 4 км дымка 10/10 60 м +20.6 +20.6 100 +25 +25 комфорт 1011.9
штиль 0 5 км дымка 10/10 60 м +20.6 +20.6 100 +25 +25 комфорт 1012.2
ЮВ 1 6 км дымка 10/10 180 м +21.7 +21.1 96 +28 +28 душно 1011.9
ЮВ 1 10 км дымка 10/10 150 м +22.2 +21.1 93 +29 +29 очень
душно
1013.1 1011.5
нст 1 16 км 10/10 м +23.9 +20.6 82 +30 +30 очень
душно
1012.4 1010.9 +17.2 +23.9
нст 1 16 км 5/5 420 м
[Ci]
+25.6 +20.6 74 +32 +36 очень
душно
1009.8
ЮВ 2 16 км 5/5 360 м
[Ci]
+26.7 +20.6 69 +33 +36 очень
душно
1011.0 1009.5
ЮВ 1 16 км 2/2 570 м
[Ci]
+27.2 +20.0 65 +33 +39 очень
душно
1010.0 1008.5
В 2 16 км 2/2 690 м
[Ci]
+27.8 +21.1 67 +35 +38 очень
душно
1009.5 1007.8
ЮВ 3 16 км 8/2 810 м
[Ci]
+26.7 +20.0 67 +33 +34 очень
душно
1009.3 1007.8
ЮВ 3 16 км 8/2 600 м
[Ci]
+25.6 +20.0 71 +31 +32 очень
душно
1009.4 1007.8
ЮВ 2 14 км 8/2 690 м
[Ac Ci]
+23.3 +20.0 82 +30 +30 очень
душно
1009.7 1008.1 +23.3 +28.3
В 2 13 км 5/2 180 м
[Ac Ci]
+21.7 +20.0 90 +27 +27 душно 1008.1
ЮВ 2 13 км 8/2 180 м
[Ac Ci]
+21.1 +20.6 97 +26 +26 душно 1009.8 1008.1
ЮВ 1 10 км дымка 8/2 180 м
[Ci]
+20.6 +20.0 96 +25 +25 комфорт 1009.9 1008.5
ЮВ 1 8 км дымка 8/5 150 м
[Ci]
+19.4 +19.4 100 +22 +22 комфорт 1010.8 1009.5
ЮВ 1 8 км дымка 8/8 150 м
[Ci]
+20.0 +19.4 96 +24 +24 комфорт 1009.5
ЮВ 2 8 км дымка 10/10 150 м +21.1 +20.6 97 +26 +26 душно 1011.0 1009.5
ЮВ 1 8 км дымка 10/10 120 м +21.7 +20.6 93 +27 +27 душно 1009.8
ЮВ 2 8 км дымка 10/10 120 м +21.1 +20.6 97 +26 +26 душно 1011.2 1009.8
Ю 2 6 км дымка 10/10 120 м +21.7 +21.1 96 +28 +28 душно 1011.1 1009.5 +19.4 +23.3
Ю 2 8 км дымка 10/10 150 м +22.2 +21.1 93 +29 +29 очень
душно
1009.2
Ю 2 8 км дымка 10/10 180 м +22.2 +21.1 93 +29 +29 очень
душно
1010.6 1009.2
Ю 2 8 км дымка 10/10 210 м +22.2 +21.1 93 +29 +29 очень
душно
1010.3 1008.8
Ю 1 10 км дымка 10/10 180 м +22.2 +21.1 93 +29 +29 очень
душно
1008.5
Ю 1 11 км 10/10 210 м +22.2 +21.1 93 +29 +29 очень
душно
1009.8 1008.5
Ю 2 10 км дымка 10/10 210 м +21.7 +21.1 96 +28 +28 душно 1009.2 1007.8
Ю 1 11 км 10/10 240 м +21.7 +20.6 93 +27 +27 душно 1008.9 1007.5
ЮВ 1 11 км 10/5 240 м
[Ci]
+20.6 +20.0 96 +25 +25 комфорт 1007.1
ЮВ 1 11 км 10/8 210 м
[Ci]
+20.6 +20.0 96 +25 +25 комфорт 1008.9 1007.5 +20.6 +22.2
ЮВ 1 11 км 10/10 210 м +21.1 +20.6 97 +26 +26 душно 1007.5
ЮВ 1 11 км 10/10 270 м +21.7 +21.1 96 +28 +28 душно 1007.8
Ю 1 10 км дымка 10/10 240 м +21.7 +21.1 96 +28 +28 душно 1009.3 1007.8
Ю 1 6 км дымка 10/10 210 м +21.7 +21.1 96 +28 +28 душно 1007.8
Ю 1 4 км дымка 10/10 210 м +21.7 +21.1 96 +28 +28 душно 1007.8
ЮВ 1 5 км дымка 10/10 210 м +22.2 +21.7 97 +29 +29 очень
душно
1009.5 1008.1
Ю 1 6 км дымка 10/10 270 м +23.3 +22.8 97 +32 +32 очень
душно
1010.4 1008.8
Ю 4
{5}
13 км 8/8 330 м +25.6 +22.8 85 +34 +34 очень
душно
1010.6 1009.2
Ю 4
{6}
16 км 8/8 510 м
[Ci]
+26.7 +21.7 74 +34 +34 очень
душно
1010.5 1009.2
Ю 4 16 км 8/8 690 м +27.2 +21.7 72 +35 +35 очень
душно
1009.5 1008.1 +20.6 +28.3
Ю 4 16 км 8/8 690 м +28.3 +21.7 67 +36 +36 очень
душно
1007.7 1006.1
ЮВ 4 16 км 8/8 540 м +28.3 +22.8 72 +38 +38 очень
душно
1006.3 1004.8
Ю 4 16 км 5/5 510 м +28.3 +22.8 72 +38 +38 очень
душно
1004.1
ЮВ 4 16 км 5/5 480 м +28.3 +22.8 72 +38 +38 очень
душно
1005.2 1003.8
ЮВ 5
{6}
16 км 2/2 360 м +27.8 +22.8 74 +37 +37 очень
душно
1005.0 1003.4
ЮВ 5
{7}
16 км 2/2 300 м +26.1 +22.2 79 +34 +34 очень
душно
1004.5 1003.1
Местоположение метеостанции Corpus Christi International Airport: широта 27.7731 долгота -97.5128 высота над уровнем моря 13 м.
В архиве по умолчанию представлена погода в Корпус Кристи за последние 1-2 суток. Обновление информации о фактической погоде в базе происходит ежечасно! Архивные данные за месяц целиком и за предыдущие месяцы Вы можете получить, выбрав интересующий диапазон дат из раскрывающегося списка и нажав кнопку "Ввод!".
Внимание! Архив погоды МЕТАР в базе сайта по станциям, не включенным в климатический монитор, хранится не более 60 дней. Нет смысла пытаться выбрать более раннюю дату.
*Определитесь, кто Вы:
Внимание! Время в таблицах - местное (без учета летнего времени). Для получения всемирного времени необходимо вычесть поправку, которая равна -6 ч.
Смотрите также архив погоды в соседних городах и на ближайших метеорологических станциях:
Партнеры нашего сайта:      
Пояснения к столбцам:
  • Ветер - указаны скорость ветра в м/с - средняя за 10 мин, порывы в срок и между сроками (в фигурных скобках) и направление, откуда дует ветер: С - северный,
  • СВ - северо-восточный, В - восточный, ЮВ - юго-восточный, Ю - южный, ЮЗ - юго-западный, З - западный, СЗ - северо-западный.
  • Видимость - горизонтальная дальность видимости в метрах или километрах. При видимости от 1 до 10 км при отсутствии осадков обычно наблюдается дымка, при ухудшении видимости до 1 км и менее - туман. В сухую погоду видимость может ухудшаться дымом, пылью или мглою.
  • Явления - указаны атмосферные явления, наблюдавшиеся в срок или в последний час перед сроком; фигурными скобками обозначены явления, наблюдавшиеся между сроками (за 1-3 часа до срока); квадратными скобками обозначены град или гололедные отложения с указанием их диаметра в мм.
  • Облачность - указаны через наклонную черту общая и нижняя облачность в баллах и высота нижней границы облаков в метрах; квадратными скобками обозначены формы облаков: Ci - перистые, Cs - перисто-слоистые, Cc - перисто-кучевые, Ac - высококучевые, As - высокослоистые, Sc - слоисто-кучевые, Ns - слоисто-дождевые, Cu - кучевые, Cb - кучево-дождевые. Подробнее классификацию облаков см. в Атласе облаков (PDF).
  • T - Температура воздуха - температура, измеренная на высоте 2 м над землей.
  • Td - Температура точки росы - температура, при понижении до которой содержащийся в воздухе водяной пар достигнет насыщения.
  • f - Относительная влажность воздуха - влажноcть воздуха, измеренная на высоте 2 м над землей.
  • Te - Эффективная температура - температура, которую ощущает одетый по сезону человек в тени. Характеристика душности погоды. При расчете учитывается влияние влажности воздуха и скорости ветра на теплоощущения человека.
  • Tes - Эффективная температура на солнце - температура, которую ощущает человек, с поправкой на солнечный нагрев. Характеристика знойности погоды. Зависит от высоты солнца над горизонтом, облачности и скорости ветра. Ночью, в пасмурную погоду, а также при ветре 12 м/с и более поправка равна нулю.
  • P - Атмосферное давление - приведенное к уровню моря атмосферное давление.
  • Po - Атмосферное давление - измеренное на уровне метеостанции атмосферное давление.
  • Tmin - Минимальная температура - минимум температуры воздуха на высоте 2 м над землей.
  • Tmax - Максимальная температура - максимум температуры воздуха на высоте 2 м над землей.
  • R - Количество осадков - Количество выпавших осадков за период времени, мм. При наведении курсора мыши на число - период времени, за который выпало указанное количество осадков.
  • R24 - Количество осадков - Количество выпавших осадков за 24 часа, мм.
  • S - Снежный покров - Высота снежного покрова, см. При наведении курсора мыши на число - состояние снежного покрова и степень покрытия местности в баллах.